Aiken, SC

10:56 PM EDT on July 25, 2017 (GMT -0400)
Aiken Municipal

Weather History for KAIK - February, 2015

Change the Weather History Date:

Saturday, February 21, 2015

  Actual Average Record
Temperature  
Mean Temperature 47 °F -  
Max Temperature 64 °F 65 °F 73 °F (2011)
Min Temperature 30 °F 37 °F 30 °F (2015)
Degree Days  
Heating Degree Days 18    
Moisture  
Dew Point 31 °F    
Average Humidity 56    
Maximum Humidity 76    
Minimum Humidity 37    
Precipitation  
Precipitation 0.00 in - - ()
Sea Level Pressure  
Sea Level Pressure 30.31 in    
Wind  
Wind Speed 7 mph (SSE)    
Max Wind Speed 17 mph    
Max Gust Speed 28 mph    
Visibility 10 miles    
Events      
Averages and records for this station are not official NWS values.
T = Trace of Precipitation, MM = Missing Value Source: NWS Daily Summary

Daily Weather History Graph

Daily Weather History Graph

Search for Another Location

Airport or City:

Trip Planner

Search our weather history database for the weather conditions in past years. The results will help you decide how hot, cold, wet, or windy it might be!

Date:

Astronomy

Feb. 21, 2015 Rise Set
Actual Time 7:04 AM EST 6:16 PM EST
Civil Twilight 6:39 AM EST 6:41 PM EST
Nautical Twilight 6:10 AM EST 7:10 PM EST
Astronomical Twilight 5:41 AM EST 7:39 PM EST
Moon 8:45 AM EST (2/21) 9:38 PM EST (2/21)
Length of Visible Light 12h 02m
Length of Day
11h 11m
Waxing Crescent, 11% of the Moon is Illuminated
Feb 21
Waxing Crescent
Feb 25
First Quarter
Mar 5
Full
Mar 13
Last Quarter
Mar 20
New

Hourly Weather History & Observations

Time (EST) Temp. Windchill Dew Point Humidity Pressure Visibility Wind Dir Wind Speed Gust Speed Precip Events Conditions
12:15 AM 32.0 °F 25.6 °F 12.2 °F 44% 30.45 in 10.0 mi ESE 6.9 mph - N/A   Overcast
12:35 AM 32.0 °F 28.7 °F 14.0 °F 48% 30.45 in 10.0 mi ESE 3.5 mph - N/A   Overcast
12:55 AM 32.0 °F 28.7 °F 14.0 °F 48% 30.45 in 10.0 mi East 3.5 mph - N/A   Overcast
1:15 AM 32.0 °F 26.4 °F 14.0 °F 48% 30.44 in 10.0 mi ESE 5.8 mph - N/A   Overcast
1:55 AM 32.0 °F 26.4 °F 14.0 °F 48% 30.43 in 10.0 mi ESE 5.8 mph - N/A   Mostly Cloudy
2:15 AM 30.2 °F - 14.0 °F 51% 30.44 in 10.0 mi Calm Calm - N/A   Scattered Clouds
2:35 AM 30.2 °F - 14.0 °F 51% 30.45 in 10.0 mi Calm Calm - N/A   Clear
2:55 AM 30.2 °F - 17.6 °F 60% 30.44 in 10.0 mi Calm Calm - N/A   Mostly Cloudy
3:15 AM 32.0 °F - 17.6 °F 55% 30.44 in 10.0 mi Calm Calm - N/A   Overcast
3:35 AM 30.2 °F 26.7 °F 17.6 °F 60% 30.42 in 10.0 mi East 3.5 mph - N/A   Overcast
3:55 AM 32.0 °F 27.5 °F 17.6 °F 55% 30.42 in 10.0 mi ESE 4.6 mph - N/A   Overcast
4:15 AM 30.2 °F 25.4 °F 17.6 °F 60% 30.41 in 10.0 mi ESE 4.6 mph - N/A   Overcast
4:35 AM 32.0 °F 27.5 °F 19.4 °F 60% 30.42 in 10.0 mi ESE 4.6 mph - N/A   Overcast
4:55 AM 32.0 °F 23.6 °F 19.4 °F 60% 30.40 in 10.0 mi ESE 10.4 mph - N/A   Overcast
5:15 AM 32.0 °F 28.7 °F 19.4 °F 60% 30.41 in 10.0 mi SE 3.5 mph - N/A   Overcast
5:35 AM 32.0 °F 26.4 °F 19.4 °F 60% 30.42 in 10.0 mi ESE 5.8 mph - N/A   Overcast
5:55 AM 32.0 °F 28.7 °F 19.4 °F 60% 30.41 in 10.0 mi ESE 3.5 mph - N/A   Scattered Clouds
6:15 AM 32.0 °F 27.5 °F 19.4 °F 60% 30.40 in 10.0 mi East 4.6 mph - N/A   Mostly Cloudy
6:35 AM 32.0 °F 27.5 °F 19.4 °F 60% 30.41 in 10.0 mi East 4.6 mph - N/A   Overcast
6:55 AM 32.0 °F 27.5 °F 21.2 °F 64% 30.41 in 10.0 mi East 4.6 mph - N/A   Overcast
7:15 AM 32.0 °F 26.4 °F 21.2 °F 64% 30.42 in 10.0 mi East 5.8 mph - N/A   Overcast
7:55 AM 32.0 °F 27.5 °F 19.4 °F 60% 30.41 in 10.0 mi East 4.6 mph - N/A   Mostly Cloudy
8:15 AM 32.0 °F 27.5 °F 21.2 °F 64% 30.41 in 10.0 mi ENE 4.6 mph - N/A   Scattered Clouds
8:35 AM 33.8 °F 29.6 °F 23.0 °F 65% 30.41 in 10.0 mi East 4.6 mph - N/A   Scattered Clouds
8:55 AM 35.6 °F 29.9 °F 24.8 °F 65% 30.41 in 10.0 mi East 6.9 mph - N/A   Mostly Cloudy
9:15 AM 37.4 °F 32.1 °F 28.4 °F 70% 30.41 in 10.0 mi ESE 6.9 mph - N/A   Scattered Clouds
9:35 AM 39.2 °F 34.2 °F 30.2 °F 70% 30.40 in 10.0 mi ESE 6.9 mph - N/A   Clear
9:55 AM 41.0 °F 34.7 °F 32.0 °F 70% 30.40 in 10.0 mi ESE 10.4 mph - N/A   Clear
10:15 AM 42.8 °F 37.0 °F 32.0 °F 66% 30.39 in 10.0 mi SE 10.4 mph - N/A   Clear
10:35 AM 44.6 °F 39.7 °F 32.0 °F 61% 30.37 in 10.0 mi SE 9.2 mph - N/A   Clear
10:55 AM 46.4 °F 42.4 °F 33.8 °F 62% 30.36 in 10.0 mi SSE 8.1 mph 16.1 mph N/A   Clear
11:15 AM 50.0 °F - 35.6 °F 58% 30.36 in 10.0 mi South 12.7 mph 20.7 mph N/A   Clear
11:35 AM 53.6 °F - 37.4 °F 54% 30.37 in 10.0 mi South 11.5 mph 18.4 mph N/A   Clear
11:55 AM 55.4 °F - 37.4 °F 51% 30.35 in 10.0 mi South 13.8 mph 24.2 mph N/A   Clear
12:15 PM 55.4 °F - 37.4 °F 51% 30.33 in 10.0 mi South 16.1 mph 25.3 mph N/A   Clear
12:35 PM 57.2 °F - 37.4 °F 48% 30.33 in 10.0 mi South 17.3 mph 24.2 mph N/A   Clear
12:55 PM 59.0 °F - 35.6 °F 42% 30.31 in 10.0 mi SSW 16.1 mph 27.6 mph N/A   Clear
1:15 PM 60.8 °F - 35.6 °F 39% 30.30 in 10.0 mi South 15.0 mph 23.0 mph N/A   Clear
1:35 PM 59.0 °F - 35.6 °F 42% 30.28 in 10.0 mi South 15.0 mph 21.9 mph N/A   Mostly Cloudy
1:55 PM 60.8 °F - 37.4 °F 42% 30.26 in 10.0 mi South 13.8 mph 18.4 mph N/A   Mostly Cloudy
2:15 PM 60.8 °F - 37.4 °F 42% 30.25 in 10.0 mi SSW 13.8 mph 19.6 mph N/A   Clear
2:35 PM 60.8 °F - 37.4 °F 42% 30.24 in 10.0 mi South 13.8 mph 19.6 mph N/A   Scattered Clouds
2:55 PM 60.8 °F - 37.4 °F 42% 30.23 in 10.0 mi South 12.7 mph 17.3 mph N/A   Scattered Clouds
3:15 PM 62.6 °F - 37.4 °F 39% 30.22 in 10.0 mi SSW 10.4 mph 19.6 mph N/A   Scattered Clouds
3:35 PM 64.4 °F - 37.4 °F 37% 30.20 in 10.0 mi SSW 15.0 mph 20.7 mph N/A   Clear
3:55 PM 62.6 °F - 37.4 °F 39% 30.20 in 10.0 mi South 16.1 mph 25.3 mph N/A   Clear
4:15 PM 62.6 °F - 37.4 °F 39% 30.19 in 10.0 mi South 16.1 mph 23.0 mph N/A   Clear
4:35 PM 64.4 °F - 37.4 °F 37% 30.19 in 10.0 mi South 17.3 mph 25.3 mph N/A   Clear
4:55 PM 64.4 °F - 39.2 °F 40% 30.18 in 10.0 mi South 13.8 mph 21.9 mph N/A   Clear
5:15 PM 62.6 °F - 39.2 °F 42% 30.18 in 10.0 mi South 15.0 mph 19.6 mph N/A   Scattered Clouds
5:35 PM 62.6 °F - 41.0 °F 45% 30.18 in 10.0 mi South 16.1 mph 19.6 mph N/A   Mostly Cloudy
5:55 PM 62.6 °F - 41.0 °F 45% 30.18 in 10.0 mi South 15.0 mph 21.9 mph N/A   Scattered Clouds
6:15 PM 60.8 °F - 41.0 °F 48% 30.18 in 10.0 mi South 8.1 mph 17.3 mph N/A   Scattered Clouds
6:35 PM 60.8 °F - 41.0 °F 48% 30.19 in 10.0 mi South 8.1 mph - N/A   Scattered Clouds
6:55 PM 60.8 °F - 42.8 °F 52% 30.19 in 10.0 mi South 8.1 mph - N/A   Scattered Clouds
7:55 PM 57.2 °F - 42.8 °F 59% 30.19 in 10.0 mi SSE 8.1 mph - N/A   Mostly Cloudy
8:15 PM 57.2 °F - 42.8 °F 59% 30.18 in 10.0 mi South 8.1 mph - N/A   Overcast
8:35 PM 55.4 °F - 42.8 °F 63% 30.18 in 10.0 mi SSE 9.2 mph - N/A   Overcast
8:55 PM 55.4 °F - 42.8 °F 63% 30.18 in 10.0 mi South 9.2 mph - N/A   Scattered Clouds
9:15 PM 55.4 °F - 42.8 °F 63% 30.18 in 10.0 mi SSE 8.1 mph - N/A   Clear
9:35 PM 55.4 °F - 44.6 °F 67% 30.18 in 10.0 mi SSE 8.1 mph - N/A   Clear
9:55 PM 53.6 °F - 44.6 °F 72% 30.18 in 10.0 mi SSE 9.2 mph - N/A   Clear
10:15 PM 53.6 °F - 44.6 °F 72% 30.19 in 10.0 mi SSE 10.4 mph - N/A   Clear
10:35 PM 53.6 °F - 44.6 °F 72% 30.19 in 10.0 mi SSE 10.4 mph - N/A   Clear
10:55 PM 53.6 °F - 44.6 °F 72% 30.18 in 10.0 mi SSE 10.4 mph - N/A   Scattered Clouds
11:15 PM 53.6 °F - 44.6 °F 72% 30.18 in 10.0 mi SSE 8.1 mph - N/A   Scattered Clouds
11:35 PM 51.8 °F - 44.6 °F 76% 30.18 in 10.0 mi South 5.8 mph - N/A   Scattered Clouds
11:55 PM 51.8 °F - 44.6 °F 76% 30.19 in 10.0 mi South 3.5 mph - N/A   Clear